When you browse on this site, cookies collect data to enhance your experience and personalize the content and advertising you see.
Visit our Privacy Policy to learn more. By continuing to use the site, you agree to this use of cookies and data.
  • en Suisse
  • Liste des pays
  • À 7 jours
  • Température de l'eau
  • Carte satellitaire
  • Carte météo
  • Widgets météo
  • user-avatar
    Se connecter

    Météo par heure à La-Plata

    Ce jour, 21 Mai, Mardi

    Heure Température Précipitation Vent Pression Humidité
    00:00 +13°C° 0.1 mm 9 m/s 762 mmHg 85%
    01:00 +13°C° 0.1 mm 9 m/s 762 mmHg 84%
    02:00 +14°C° 0 mm 7 m/s 762 mmHg 83%
    03:00 +14°C° 0.2 mm 7 m/s 762 mmHg 84%
    04:00 +14°C° 0.2 mm 7 m/s 762 mmHg 86%
    05:00 +12°C° 0.2 mm 7 m/s 762 mmHg 87%
    06:00 +12°C° 0.3 mm 7 m/s 763 mmHg 87%
    07:00 +12°C° 0.3 mm 7 m/s 763 mmHg 86%
    08:00 +13°C° 0 mm 6 m/s 763 mmHg 87%
    09:00 +14°C° 0 mm 7 m/s 763 mmHg 82%
    10:00 +15°C° 0 mm 7 m/s 764 mmHg 78%
    11:00 +16°C° 0 mm 8 m/s 764 mmHg 74%
    12:00 +15°C° 0 mm 8 m/s 764 mmHg 73%
    13:00 +15°C° 0 mm 8 m/s 764 mmHg 72%
    14:00 +15°C° 0 mm 9 m/s 764 mmHg 71%
    15:00 +13°C° 0 mm 8 m/s 764 mmHg 73%
    16:00 +14°C° 0 mm 7 m/s 764 mmHg 75%
    17:00 +12°C° 0 mm 7 m/s 765 mmHg 78%
    18:00 +12°C° 0 mm 7 m/s 765 mmHg 80%
    19:00 +11°C° 0 mm 6 m/s 765 mmHg 81%
    20:00 +11°C° 0 mm 6 m/s 765 mmHg 83%
    21:00 +11°C° 0 mm 6 m/s 765 mmHg 82%
    22:00 +11°C° 0 mm 6 m/s 766 mmHg 81%
    23:00 +11°C° 0 mm 6 m/s 766 mmHg 80%

    Demain, 22 Mai, Mercredi

    Heure Température Précipitation Vent Pression Humidité
    00:00 +11°C° 0 mm 6 m/s 766 mmHg 78%
    01:00 +10°C° 0 mm 6 m/s 766 mmHg 77%
    02:00 +10°C° 0 mm 6 m/s 766 mmHg 75%
    03:00 +10°C° 0 mm 6 m/s 765 mmHg 74%
    04:00 +10°C° 0 mm 6 m/s 765 mmHg 73%
    05:00 +10°C° 0 mm 6 m/s 765 mmHg 72%
    06:00 +10°C° 0 mm 5 m/s 765 mmHg 72%
    07:00 +10°C° 0 mm 5 m/s 766 mmHg 71%
    08:00 +10°C° 0 mm 5 m/s 766 mmHg 71%
    09:00 +12°C° 0 mm 5 m/s 766 mmHg 70%
    10:00 +13°C° 0 mm 5 m/s 766 mmHg 69%
    11:00 +14°C° 0 mm 4 m/s 766 mmHg 69%
    12:00 +15°C° 0 mm 4 m/s 765 mmHg 67%
    13:00 +15°C° 0 mm 4 m/s 765 mmHg 65%
    14:00 +17°C° 0 mm 4 m/s 764 mmHg 64%
    15:00 +15°C° 0 mm 4 m/s 764 mmHg 66%
    16:00 +14°C° 0 mm 4 m/s 764 mmHg 68%
    17:00 +14°C° 0 mm 4 m/s 764 mmHg 70%
    18:00 +13°C° 0 mm 3 m/s 764 mmHg 70%
    19:00 +13°C° 0 mm 3 m/s 764 mmHg 70%
    20:00 +12°C° 0 mm 3 m/s 764 mmHg 70%
    21:00 +12°C° 0 mm 3 m/s 764 mmHg 68%
    22:00 +12°C° 0 mm 3 m/s 764 mmHg 66%
    23:00 +11°C° 0 mm 3 m/s 764 mmHg 64%

    Après-demain, 23 Mai, Jeudi

    Heure Température Précipitation Vent Pression Humidité
    00:00 +11°C° 0 mm 3 m/s 764 mmHg 65%
    01:00 +10°C° 0 mm 3 m/s 764 mmHg 66%
    02:00 +9°C° 0 mm 3 m/s 763 mmHg 66%
    03:00 +9°C° 0 mm 3 m/s 763 mmHg 67%
    04:00 +9°C° 0 mm 3 m/s 763 mmHg 67%
    05:00 +8°C° 0 mm 3 m/s 763 mmHg 68%
    06:00 +8°C° 0 mm 3 m/s 763 mmHg 66%
    07:00 +8°C° 0 mm 3 m/s 763 mmHg 64%
    08:00 +8°C° 0 mm 3 m/s 763 mmHg 62%
    09:00 +10°C° 0 mm 3 m/s 763 mmHg 55%
    10:00 +12°C° 0 mm 3 m/s 763 mmHg 48%
    11:00 +14°C° 0 mm 3 m/s 763 mmHg 41%
    12:00 +16°C° 0 mm 3 m/s 762 mmHg 40%
    13:00 +16°C° 0 mm 2 m/s 762 mmHg 39%
    14:00 +17°C° 0 mm 2 m/s 761 mmHg 37%
    15:00 +16°C° 0 mm 2 m/s 761 mmHg 43%
    16:00 +15°C° 0 mm 2 m/s 761 mmHg 48%
    17:00 +12°C° 0 mm 3 m/s 760 mmHg 54%
    18:00 +12°C° 0 mm 3 m/s 760 mmHg 55%
    19:00 +11°C° 0 mm 3 m/s 761 mmHg 57%
    20:00 +11°C° 0 mm 3 m/s 761 mmHg 59%
    21:00 +10°C° 0 mm 3 m/s 761 mmHg 59%
    22:00 +10°C° 0 mm 3 m/s 761 mmHg 59%
    23:00 +10°C° 0 mm 4 m/s 761 mmHg 60%

    24 Mai, Vendredi

    Heure Température Précipitation Vent Pression Humidité
    00:00 +10°C° 0 mm 4 m/s 760 mmHg 61%
    01:00 +8°C° 0 mm 4 m/s 760 mmHg 63%
    02:00 +8°C° 0 mm 4 m/s 760 mmHg 64%
    03:00 +8°C° 0 mm 4 m/s 760 mmHg 67%
    04:00 +8°C° 0 mm 4 m/s 759 mmHg 69%
    05:00 +7°C° 0 mm 4 m/s 759 mmHg 71%
    06:00 +8°C° 0 mm 4 m/s 760 mmHg 70%
    07:00 +8°C° 0 mm 4 m/s 760 mmHg 70%
    08:00 +8°C° 0 mm 4 m/s 760 mmHg 69%
    09:00 +11°C° 0 mm 4 m/s 760 mmHg 63%
    10:00 +13°C° 0 mm 3 m/s 760 mmHg 56%
    11:00 +16°C° 0 mm 3 m/s 760 mmHg 50%
    12:00 +17°C° 0 mm 3 m/s 759 mmHg 47%
    13:00 +18°C° 0 mm 3 m/s 759 mmHg 45%
    14:00 +19°C° 0 mm 3 m/s 758 mmHg 43%
    15:00 +18°C° 0 mm 3 m/s 758 mmHg 46%
    16:00 +16°C° 0 mm 2 m/s 758 mmHg 49%
    17:00 +15°C° 0 mm 2 m/s 758 mmHg 53%
    18:00 +15°C° 0 mm 2 m/s 759 mmHg 55%
    19:00 +13°C° 0 mm 3 m/s 759 mmHg 56%
    20:00 +13°C° 0 mm 3 m/s 760 mmHg 58%
    21:00 +13°C° 0 mm 3 m/s 760 mmHg 62%
    22:00 +13°C° 0 mm 4 m/s 760 mmHg 66%
    23:00 +13°C° 0 mm 4 m/s 760 mmHg 70%

    25 Mai, Samedi

    Heure Température Précipitation Vent Pression Humidité
    00:00 +12°C° 0 mm 4 m/s 759 mmHg 72%
    01:00 +12°C° 0 mm 4 m/s 759 mmHg 74%
    02:00 +12°C° 0 mm 4 m/s 759 mmHg 76%
    03:00 +12°C° 0 mm 4 m/s 759 mmHg 76%
    04:00 +11°C° 0 mm 4 m/s 759 mmHg 76%
    05:00 +11°C° 0 mm 4 m/s 759 mmHg 76%
    06:00 +12°C° 0 mm 4 m/s 759 mmHg 74%
    07:00 +12°C° 0 mm 4 m/s 760 mmHg 72%
    08:00 +13°C° 0 mm 5 m/s 760 mmHg 70%
    09:00 +14°C° 0 mm 5 m/s 760 mmHg 65%
    10:00 +15°C° 0 mm 5 m/s 760 mmHg 60%
    11:00 +16°C° 0 mm 6 m/s 760 mmHg 56%
    12:00 +16°C° 0 mm 6 m/s 759 mmHg 55%
    13:00 +17°C° 0 mm 5 m/s 759 mmHg 54%
    14:00 +17°C° 0 mm 5 m/s 758 mmHg 54%
    15:00 +16°C° 0 mm 5 m/s 758 mmHg 58%
    16:00 +15°C° 0 mm 5 m/s 758 mmHg 63%
    17:00 +14°C° 0 mm 5 m/s 758 mmHg 67%
    18:00 +14°C° 0 mm 5 m/s 758 mmHg 69%
    19:00 +14°C° 0 mm 5 m/s 758 mmHg 72%
    20:00 +14°C° 0 mm 5 m/s 758 mmHg 74%
    21:00 +14°C° 0 mm 5 m/s 758 mmHg 74%
    22:00 +13°C° 0 mm 5 m/s 758 mmHg 75%
    23:00 +13°C° 0 mm 5 m/s 758 mmHg 76%

    26 Mai, Dimanche

    Heure Température Précipitation Vent Pression Humidité
    00:00 +13°C° 0 mm 5 m/s 758 mmHg 76%
    01:00 +13°C° 0 mm 5 m/s 758 mmHg 77%
    02:00 +13°C° 0 mm 5 m/s 758 mmHg 77%
    03:00 +13°C° 0 mm 4 m/s 758 mmHg 78%
    04:00 +13°C° 0 mm 4 m/s 758 mmHg 79%
    05:00 +13°C° 0 mm 4 m/s 758 mmHg 80%
    06:00 +13°C° 0 mm 4 m/s 758 mmHg 80%
    07:00 +13°C° 0 mm 3 m/s 758 mmHg 80%
    08:00 +14°C° 0 mm 3 m/s 759 mmHg 80%
    09:00 +16°C° 0 mm 3 m/s 758 mmHg 77%
    10:00 +17°C° 0 mm 3 m/s 758 mmHg 73%
    11:00 +18°C° 0 mm 3 m/s 758 mmHg 69%
    12:00 +18°C° 0.3 mm 3 m/s 758 mmHg 68%
    13:00 +18°C° 0.3 mm 3 m/s 757 mmHg 67%
    14:00 +19°C° 0.3 mm 2 m/s 756 mmHg 66%
    15:00 +18°C° 0 mm 2 m/s 757 mmHg 71%
    16:00 +17°C° 0 mm 2 m/s 757 mmHg 77%
    17:00 +16°C° 0 mm 1 m/s 757 mmHg 82%
    18:00 +15°C° 0 mm 1 m/s 757 mmHg 83%
    19:00 +15°C° 0 mm 1 m/s 757 mmHg 85%
    20:00 +15°C° 0 mm 1 m/s 758 mmHg 87%
    21:00 +15°C° 0 mm 1 m/s 758 mmHg 88%
    22:00 +15°C° 0 mm 1 m/s 758 mmHg 89%
    23:00 +14°C° 0 mm 1 m/s 758 mmHg 90%
    Voir plus